Zurück zum Katalog

EPSILON R/B

AktivHEO
NORAD 41897·ROCKET BODY·🇯🇵 Japan

Gestartet Dec 20, 2016 von Uchinoura Space Center

Loading…

Nächste Überflüge (nächste 24 Stunden)

TLE

AktuellSource: Space-Track

Epoche: Sep 14, 2026, 05:54 UTC

1 41897U 16080B   26257.24617350  .00121973 -21744-6  75394-3 0  9993
2 41897  31.2170 351.0578 4555591 326.8217  11.4633  6.57711014133712

Verfolge EPSILON R/B in Echtzeit mit AllMySat

Download on the App Store